TimeEDT,TemperatureF,Dew PointF,Humidity,Sea Level PressureIn,VisibilityMPH,Wind Direction,Wind SpeedMPH,Gust SpeedMPH,PrecipitationIn,Events,Conditions,WindDirDegrees,DateUTC
12:54 AM,44.1,23.0,43,30.48,10.0,North,10.4,-,N/A,,Clear,10,2012-10-13 04:54:00
1:54 AM,42.1,24.1,49,30.48,10.0,North,6.9,-,N/A,,Clear,350,2012-10-13 05:54:00
2:54 AM,41.0,27.0,57,30.47,10.0,NNW,5.8,-,N/A,,Clear,330,2012-10-13 06:54:00
3:54 AM,39.9,27.0,60,30.47,10.0,NNW,4.6,-,N/A,,Clear,330,2012-10-13 07:54:00
4:54 AM,39.0,26.1,60,30.49,10.0,NNW,6.9,-,N/A,,Clear,340,2012-10-13 08:54:00
5:54 AM,37.9,26.1,62,30.51,10.0,North,6.9,-,N/A,,Clear,350,2012-10-13 09:54:00
6:54 AM,37.0,27.0,67,30.52,10.0,North,4.6,-,N/A,,Partly Cloudy,360,2012-10-13 10:54:00
7:54 AM,39.9,27.0,60,30.53,10.0,NNE,3.5,-,N/A,,Partly Cloudy,30,2012-10-13 11:54:00
8:54 AM,44.1,26.1,49,30.53,10.0,ENE,5.8,-,N/A,,Partly Cloudy,60,2012-10-13 12:54:00
9:54 AM,48.0,28.9,48,30.54,10.0,East,6.9,-,N/A,,Clear,90,2012-10-13 13:54:00
10:54 AM,50.0,25.0,38,30.53,10.0,East,6.9,-,N/A,,Partly Cloudy,80,2012-10-13 14:54:00
11:54 AM,52.0,25.0,35,30.52,10.0,Calm,Calm,-,N/A,,Partly Cloudy,0,2012-10-13 15:54:00
12:54 PM,54.0,25.0,33,30.49,10.0,Variable,4.6,-,N/A,,Partly Cloudy,0,2012-10-13 16:54:00
1:54 PM,55.0,25.0,31,30.44,10.0,Calm,Calm,-,N/A,,Partly Cloudy,0,2012-10-13 17:54:00
2:54 PM,57.0,26.1,30,30.40,10.0,SSW,5.8,-,N/A,,Partly Cloudy,210,2012-10-13 18:54:00
3:54 PM,59.0,27.0,29,30.40,10.0,SSW,11.5,-,N/A,,Partly Cloudy,210,2012-10-13 19:54:00
4:54 PM,57.9,30.9,36,30.39,10.0,SSW,13.8,-,N/A,,Partly Cloudy,210,2012-10-13 20:54:00
5:54 PM,55.9,28.0,34,30.39,10.0,South,8.1,-,N/A,,Partly Cloudy,190,2012-10-13 21:54:00
6:54 PM,54.0,32.0,43,30.38,10.0,South,6.9,-,N/A,,Scattered Clouds,190,2012-10-13 22:54:00
7:54 PM,53.1,37.9,57,30.37,10.0,South,8.1,-,N/A,,Partly Cloudy,190,2012-10-13 23:54:00
8:54 PM,51.1,39.0,63,30.37,10.0,SSE,8.1,-,N/A,,Scattered Clouds,160,2012-10-14 00:54:00
9:54 PM,50.0,41.0,71,30.36,10.0,SSE,3.5,-,N/A,,Mostly Cloudy,160,2012-10-14 01:54:00
10:54 PM,50.0,42.1,74,30.34,10.0,South,8.1,-,N/A,,Partly Cloudy,170,2012-10-14 02:54:00
11:54 PM,50.0,42.1,74,30.33,10.0,SW,5.8,-,N/A,,Partly Cloudy,230,2012-10-14 03:54:00